Theta_e
323 323 323 324 328 332 336 337 338 338 339 344 346 341 345 349 348 353 357 354 356 355 354 353 353 357 358 357 357 354 351 349 347 345 345 346 344 344 344 343 342 342 344 344 343 344 345 345 346 346 347 349 351 352 353 351 349 351 350 349 349 349 347 344 344 346 349 350 347 347 349 349 349 348 348 347 345 347 346 339 339 342 342 342 343 343
322 322 323 327 328 331 335 336 336 338 337 339 341 339 344 348 349 354 355 353 356 356 354 353 353 355 356 356 357 354 351 351 350 347 345 345 344 344 344 343 342 343 344 345 344 344 345 345 346 347 348 351 353 353 352 349 350 352 348 346 348 349 347 347 348 349 351 351 348 348 348 348 349 348 348 347 346 348 344 337 339 341 340 341 341 343
322 322 324 330 330 329 332 334 336 336 336 337 338 340 343 346 350 354 353 354 355 355 354 354 354 356 355 355 357 355 352 352 352 350 348 346 345 344 344 344 343 343 344 344 344 344 345 346 346 347 349 352 354 354 353 350 351 353 349 346 347 347 347 348 348 349 350 351 350 348 348 347 347 348 349 347 348 348 341 337 340 340 340 341 341 341
318 321 325 329 331 329 332 333 335 335 332 336 334 336 342 348 349 349 352 354 354 353 354 354 355 358 358 355 355 356 354 353 353 351 350 349 346 345 344 345 343 343 345 344 344 345 346 347 348 349 351 352 353 353 354 352 350 350 349 347 348 348 348 348 348 349 350 351 351 349 348 347 347 348 349 347 348 348 341 338 341 341 341 342 341 340
320 323 325 327 329 331 333 334 335 332 329 335 335 336 342 348 348 348 352 354 354 353 353 353 353 355 358 356 355 356 356 355 354 352 352 351 347 346 345 345 344 343 344 344 345 346 346 348 350 351 352 353 353 354 354 354 351 348 348 348 349 349 348 347 348 348 348 349 351 351 349 347 348 349 349 348 349 347 342 340 341 341 342 343 342 343
323 325 325 326 328 330 333 333 333 330 328 330 333 339 344 348 348 351 353 353 352 350 352 352 350 352 356 356 355 356 357 358 356 353 352 352 347 345 346 346 344 345 344 345 345 346 348 350 351 352 352 352 353 353 354 354 351 347 346 348 348 349 348 346 347 346 344 345 348 350 349 347 348 350 349 349 349 348 345 345 344 342 342 344 344 345
323 326 326 326 329 333 332 332 333 332 328 326 331 341 346 348 350 351 350 349 347 348 351 352 349 350 354 355 356 357 357 358 357 355 352 352 350 345 346 347 345 345 346 345 345 346 349 352 352 352 352 352 353 353 353 354 353 349 345 346 348 349 348 346 346 345 343 343 344 347 349 348 347 350 349 349 350 348 347 349 348 345 344 347 347 346
324 326 328 327 330 333 331 331 333 333 328 325 332 342 342 343 348 350 349 347 347 349 352 351 347 349 349 353 356 357 358 359 358 356 354 354 353 347 345 347 346 346 347 346 346 347 349 352 353 352 352 351 352 352 351 353 353 351 347 345 348 349 347 347 346 345 345 343 342 345 349 348 348 351 350 349 349 348 348 350 350 348 346 347 349 348
325 325 327 329 330 331 331 331 333 333 330 329 334 338 337 338 341 347 347 344 346 347 347 348 349 346 346 350 357 358 357 359 359 355 354 354 353 349 345 347 348 346 347 347 346 348 349 351 352 351 351 351 350 350 351 353 352 351 348 344 347 348 346 348 347 345 346 343 342 348 351 349 351 352 350 349 349 349 350 350 349 349 348 345 348 349
324 324 327 330 331 331 332 332 332 331 330 331 334 334 334 336 336 342 345 341 340 341 340 344 347 345 345 350 355 356 356 358 360 355 353 354 352 350 347 346 348 346 347 347 346 348 348 349 351 350 351 351 349 350 352 353 352 351 349 346 346 347 346 347 346 348 348 345 344 349 351 351 352 352 350 351 351 349 351 351 349 349 348 344 344 346
324 326 329 330 330 332 333 332 332 331 330 331 333 332 333 334 334 336 338 337 336 335 335 340 345 344 345 350 353 354 354 356 359 356 352 354 352 350 348 347 348 347 347 347 346 347 347 349 350 350 349 349 349 351 351 353 353 351 350 348 347 347 346 347 347 348 348 347 347 348 348 350 352 352 350 352 351 349 350 351 350 348 346 346 345 346
324 326 329 330 330 331 332 331 331 332 330 330 330 331 330 329 331 331 332 334 334 334 336 338 342 343 342 348 351 352 352 352 357 357 353 353 353 352 349 346 346 346 347 347 345 346 347 349 350 349 349 349 350 350 350 353 354 353 353 351 349 348 346 346 347 348 348 348 349 348 348 348 350 350 350 350 348 347 347 349 349 345 345 347 349 350
322 327 328 328 329 329 330 329 329 330 330 330 328 327 325 325 328 327 329 332 331 336 345 345 344 343 343 348 352 352 350 350 355 356 354 353 353 353 352 349 346 346 346 347 346 345 347 348 349 348 348 349 350 351 351 353 354 355 355 353 350 348 346 346 346 347 349 350 349 347 348 347 347 348 348 347 345 343 343 347 348 344 345 348 349 351
319 327 328 328 327 327 329 326 326 327 328 329 326 325 324 326 330 331 330 333 333 338 346 348 345 343 344 349 351 351 352 351 354 356 354 355 354 353 353 350 347 346 346 346 346 346 347 348 349 349 349 349 351 351 350 353 353 355 356 354 351 348 346 345 345 347 348 350 349 348 348 348 346 347 346 345 346 345 342 347 348 345 345 346 346 350
318 321 325 327 327 327 328 326 328 328 327 329 328 328 326 326 331 334 332 332 336 338 342 344 344 342 343 349 351 351 352 353 354 354 355 354 353 352 350 349 348 346 345 346 346 345 347 348 348 349 349 350 351 351 350 352 353 355 355 353 350 347 346 346 345 346 347 348 349 348 349 348 346 348 347 345 349 348 344 347 351 349 348 346 347 351
317 319 325 328 328 327 327 327 330 329 326 328 330 327 325 328 332 333 332 332 335 337 339 341 344 345 346 351 353 351 351 352 353 354 355 353 352 351 350 349 348 348 346 345 346 346 347 349 348 349 349 350 352 351 350 351 353 355 354 349 346 346 347 347 346 346 346 347 349 349 348 348 348 348 349 348 350 349 346 350 351 350 351 350 349 352
316 318 326 328 327 326 326 327 329 327 324 326 325 323 326 333 334 330 332 334 334 336 338 339 342 348 349 351 353 351 350 352 354 356 356 353 352 351 351 350 348 347 347 346 346 346 348 349 348 349 350 350 352 352 351 352 352 354 355 350 344 343 347 347 345 345 345 345 348 348 347 350 349 348 351 350 348 349 349 352 351 348 351 351 350 351
319 319 325 328 326 326 327 326 327 329 328 325 322 324 327 332 334 332 333 334 333 334 337 339 341 344 345 347 353 353 352 354 356 358 357 354 353 352 352 352 349 347 346 346 345 346 347 347 348 349 349 350 353 352 351 352 352 353 355 353 346 342 344 346 345 345 345 345 345 345 346 349 348 349 353 351 349 352 353 353 353 351 352 353 351 350
324 319 323 327 325 326 326 325 324 326 328 326 324 328 327 325 325 328 331 333 333 335 338 340 341 342 342 347 353 354 353 354 354 355 355 354 354 353 353 351 349 347 347 346 346 346 345 346 347 348 349 350 351 352 352 351 352 353 355 355 351 345 344 347 350 347 346 346 346 345 345 347 350 352 354 351 350 354 355 354 353 353 354 354 352 351
326 320 320 325 326 326 326 323 320 321 324 325 325 327 328 326 325 328 330 331 332 334 336 339 340 340 343 350 353 353 353 353 353 354 354 354 354 353 351 350 349 349 348 347 346 346 346 345 347 348 349 350 350 351 351 350 351 352 353 355 354 352 351 352 353 350 346 346 348 348 346 345 350 354 354 351 351 353 354 353 353 354 355 356 354 353
326 323 319 323 325 323 322 323 321 321 322 322 323 323 325 327 327 330 331 329 331 331 332 338 339 339 345 354 353 351 352 351 351 354 353 353 353 352 351 351 351 350 349 347 347 347 346 344 346 349 349 350 350 350 350 349 351 351 352 352 352 352 353 354 354 352 350 348 351 353 351 346 348 353 355 353 351 353 355 355 354 354 355 355 355 355
325 324 320 320 321 320 321 325 325 325 324 322 323 322 324 327 325 326 327 327 328 328 327 334 339 340 346 353 352 351 352 351 351 353 353 352 352 352 351 353 353 350 350 351 348 346 347 345 346 348 349 349 349 349 349 350 349 350 350 350 350 350 352 352 353 353 353 352 353 354 354 352 350 350 355 356 354 354 355 355 355 354 354 353 354 356
325 325 322 319 320 322 324 326 324 324 325 324 324 325 324 326 324 323 324 325 327 327 327 331 336 341 347 352 352 351 352 353 352 351 352 352 352 352 352 353 350 348 350 353 351 347 346 346 345 346 348 348 348 350 350 349 349 350 350 350 350 349 350 351 351 352 353 353 353 353 354 355 353 349 352 356 356 355 354 355 356 355 354 355 354 354
325 323 321 319 323 325 326 327 325 324 325 323 324 326 324 323 325 326 328 328 327 326 329 333 335 342 349 352 353 351 352 352 349 349 351 351 353 354 353 351 346 346 350 353 353 351 347 346 346 346 348 348 349 349 350 349 349 350 350 349 350 350 350 350 350 351 351 351 352 353 352 354 354 351 351 353 354 354 353 354 355 354 354 355 355 354
323 322 321 318 319 322 322 322 321 322 322 322 323 325 325 325 325 327 329 330 327 324 328 334 336 342 349 351 351 350 351 351 350 349 349 351 355 354 354 353 350 350 353 352 353 353 349 347 347 347 349 350 349 348 348 349 350 350 349 349 349 351 351 350 349 350 351 350 351 352 352 353 353 353 352 352 353 353 353 353 353 353 354 354 354 354
323 324 322 318 317 319 320 319 319 320 321 322 324 324 326 325 324 324 324 324 324 324 326 331 337 344 349 350 350 349 348 350 351 351 350 353 354 352 351 353 353 355 355 353 354 354 350 348 347 347 348 349 349 348 347 348 349 349 348 349 351 351 351 351 350 350 351 351 352 352 352 351 351 351 351 351 351 351 351 352 352 353 353 353 354 354
325 326 325 323 320 321 323 324 326 325 321 319 320 322 324 326 327 325 320 320 323 324 327 335 342 346 348 349 350 348 347 348 350 350 351 354 353 349 350 352 353 354 355 355 355 354 352 350 349 349 349 349 349 348 348 348 348 348 348 350 351 351 352 352 351 351 352 351 352 351 351 352 351 350 350 350 349 349 349 350 350 351 352 352 352 352
325 324 325 326 324 323 326 327 328 327 323 321 321 322 324 325 326 324 319 322 325 323 328 342 348 345 346 350 350 347 346 346 348 350 350 352 352 350 349 350 350 352 354 354 354 353 353 353 352 352 353 352 349 349 351 350 346 348 351 351 352 353 354 353 353 354 352 352 352 352 350 351 351 350 348 348 348 348 348 348 348 349 350 350 350 351
324 323 325 325 325 326 327 327 328 328 326 326 324 324 324 324 325 323 321 326 325 325 331 344 346 344 347 349 348 347 347 346 348 348 347 350 351 349 348 350 349 350 351 352 351 351 351 352 354 355 355 355 353 351 352 351 348 352 354 354 354 355 355 355 355 356 354 353 354 353 351 348 349 351 348 347 347 347 346 347 347 347 347 347 348 349
324 323 325 326 324 325 326 326 327 326 325 326 327 326 325 324 323 325 325 325 326 331 340 345 343 344 346 346 347 349 349 350 350 348 347 349 351 349 348 349 350 350 351 351 351 350 348 349 350 351 353 355 355 354 355 355 354 356 357 356 356 355 355 356 357 357 355 353 353 353 353 350 349 350 349 348 348 348 347 346 345 346 346 346 347 347
323 321 326 326 322 323 326 325 325 326 325 324 324 326 328 326 323 323 325 326 327 334 342 345 344 346 345 346 350 350 350 350 349 348 349 350 350 349 350 350 350 350 350 351 351 351 349 348 346 345 347 350 351 352 354 356 356 356 356 357 355 353 352 354 355 352 350 352 353 352 351 352 353 352 352 353 353 351 350 349 348 348 347 346 346 346
323 323 325 325 320 321 325 325 324 325 324 321 323 329 332 329 327 330 335 336 334 336 339 341 343 345 346 347 351 350 350 350 349 350 349 349 350 350 350 350 350 349 349 349 350 350 352 351 348 347 348 347 347 347 348 353 355 355 355 356 355 352 349 350 349 345 345 350 351 350 349 351 353 354 355 355 353 352 352 350 349 350 349 348 348 347
324 324 324 324 320 320 323 325 325 323 321 321 327 333 334 333 334 337 339 341 340 339 339 339 342 346 348 348 348 349 349 349 349 350 348 348 349 348 348 348 347 347 347 348 349 350 352 353 353 352 352 352 352 349 346 348 350 352 353 353 353 350 349 351 349 345 345 349 348 350 353 350 347 350 355 355 352 351 350 347 347 349 349 349 349 349
323 324 324 325 322 320 323 326 324 320 320 324 332 335 335 335 338 339 340 340 341 341 340 342 345 347 347 348 348 348 348 348 349 349 348 348 347 346 346 345 344 344 344 345 346 349 350 351 352 353 354 354 354 352 349 348 348 349 350 350 350 350 350 352 352 348 349 349 347 350 353 350 345 345 350 351 350 350 348 346 346 346 346 347 348 349
323 323 324 325 322 321 323 323 321 321 325 331 334 333 335 336 337 340 342 342 342 343 342 343 345 346 346 348 348 347 347 347 348 347 347 346 345 345 344 343 343 343 342 342 344 346 347 348 350 351 352 353 353 352 352 351 350 350 349 349 349 350 351 351 350 350 350 350 349 350 351 351 350 348 347 349 349 349 348 348 347 346 346 346 346 347
322 323 324 324 323 323 322 322 323 326 330 333 333 331 334 336 336 338 340 341 342 343 342 343 343 344 347 347 347 347 347 346 346 346 345 345 344 344 343 343 342 341 340 341 342 343 344 346 347 348 350 350 351 351 352 352 351 350 350 348 348 350 350 351 350 351 352 352 352 352 351 351 350 347 347 348 348 349 350 351 350 349 349 349 347 348
322 322 322 322 323 322 321 322 327 330 331 333 334 334 333 335 337 338 338 341 342 341 343 344 343 343 346 346 346 346 346 345 345 345 344 344 343 342 342 341 340 340 340 339 339 341 343 344 344 345 346 347 348 348 350 350 350 350 349 349 349 348 349 349 349 350 351 352 351 350 349 348 347 345 347 347 348 349 349 350 349 349 350 349 349 349
322 323 323 322 322 323 322 322 325 328 330 332 333 332 331 333 336 337 338 339 341 342 342 343 344 344 345 345 345 344 344 345 345 343 343 342 342 341 341 340 339 339 339 338 338 339 339 340 341 342 342 343 343 344 345 346 347 348 348 347 348 347 346 347 347 347 347 348 347 347 347 347 346 346 346 345 345 346 346 346 346 348 349 350 350 350
320 323 325 323 322 322 321 321 323 326 329 332 332 330 331 333 334 336 337 336 339 342 342 342 343 345 344 344 345 344 345 345 344 343 342 341 341 340 339 340 339 338 338 337 337 336 336 337 337 337 339 340 340 340 341 341 343 344 345 345 345 345 345 345 345 345 346 346 345 346 346 346 346 347 346 345 346 346 347 346 346 347 349 349 349 349
320 323 324 322 320 321 320 321 325 329 331 332 331 330 331 331 332 335 335 334 337 342 341 339 341 343 343 343 343 343 344 345 344 342 339 339 339 338 338 337 337 336 336 336 335 334 333 334 334 333 334 336 337 338 339 339 340 341 342 343 343 343 343 342 342 343 343 343 343 343 343 343 343 344 344 345 345 345 345 346 345 346 347 346 345 345
321 322 322 320 319 319 319 319 325 331 332 330 331 331 331 331 333 334 333 334 337 341 339 337 339 341 341 342 342 341 342 343 343 340 338 336 335 334 334 334 333 332 332 333 333 332 331 331 331 331 331 332 333 335 336 338 339 339 339 340 340 340 339 339 339 339 339 339 339 339 339 339 340 341 341 341 342 342 342 341 341 342 342 341 341 341
322 322 324 322 320 321 322 321 325 330 331 329 331 332 332 333 334 334 334 336 339 340 339 337 337 337 337 338 339 339 341 342 341 338 335 333 332 331 331 330 330 331 331 332 331 329 328 328 328 328 329 330 330 330 331 334 336 337 337 337 336 335 333 332 332 332 333 334 335 336 336 336 337 338 338 337 338 338 337 335 334 334 335 335 335 334
324 324 324 325 325 326 325 324 326 329 331 330 332 334 334 334 335 336 337 339 339 338 337 337 338 337 336 337 338 338 339 340 339 337 333 331 330 329 328 328 329 330 330 328 327 327 326 327 327 326 327 327 324 323 322 324 326 329 330 331 330 327 324 324 324 324 325 327 330 331 332 332 331 331 330 331 331 330 329 328 326 325 327 328 327 328
327 326 325 326 329 330 328 327 328 329 329 329 332 334 333 335 337 338 338 339 340 338 336 336 337 337 337 338 338 337 337 337 336 335 333 331 330 329 328 329 329 328 327 326 326 327 327 328 328 327 325 320 315 313 315 316 317 319 320 322 322 321 320 320 319 320 320 321 323 323 323 325 324 321 321 323 323 321 321 322 323 322 322 322 323 325
328 329 328 328 330 331 330 330 330 330 328 329 332 334 334 335 337 337 337 339 340 340 338 336 335 336 336 337 337 337 337 335 334 333 332 331 331 329 328 328 328 327 326 326 327 328 327 326 324 322 319 314 309 308 310 310 312 313 313 314 315 316 316 317 316 316 316 317 319 320 321 323 325 324 325 325 324 323 322 323 325 324 323 322 323 325
327 328 329 330 330 329 330 330 330 330 329 329 331 333 334 335 336 336 337 338 340 340 339 337 336 335 335 335 336 336 336 335 334 333 332 332 330 328 328 328 326 326 326 326 326 325 321 317 314 312 312 311 309 308 308 308 309 309 308 308 310 311 313 313 312 311 311 313 318 321 324 327 328 328 329 329 329 328 329 330 330 328 327 328 329 326
326 326 328 329 328 328 329 330 330 330 330 330 331 333 333 334 336 336 337 338 339 340 340 339 337 336 335 335 336 336 336 335 334 333 332 331 329 328 328 328 326 326 326 325 324 320 316 313 312 311 311 311 310 309 308 307 307 307 308 310 309 308 309 309 308 308 309 312 317 323 327 330 329 324 322 325 328 329 329 331 330 326 327 332 332 328
323 325 327 327 327 328 329 329 329 329 329 330 330 331 333 334 334 335 335 336 337 337 337 338 337 337 336 335 335 335 335 334 333 333 332 330 330 329 329 328 327 326 323 321 321 319 316 315 315 313 312 312 311 309 308 307 310 314 320 322 316 308 307 308 307 308 310 315 320 323 324 325 324 320 318 323 328 329 329 330 329 326 326 330 329 328
322 324 326 326 327 327 327 327 328 328 329 329 330 330 331 332 333 333 333 335 336 335 336 336 336 336 337 336 335 334 334 334 333 332 331 331 330 330 329 329 326 322 318 318 320 320 317 316 314 313 312 311 310 309 308 308 310 313 318 320 314 307 308 309 308 310 312 315 317 316 312 315 323 326 324 322 323 327 328 329 328 326 327 327 327 327
326 328 327 325 325 327 327 328 329 329 329 329 329 330 329 330 331 331 332 334 335 335 335 336 335 335 335 334 334 335 335 335 334 332 332 331 330 330 329 327 324 319 316 318 320 319 317 315 315 314 313 312 311 310 309 308 308 308 308 309 307 307 307 307 308 314 318 319 318 316 314 318 324 329 328 324 323 325 326 327 327 327 327 327 327 326
328 329 329 328 327 327 328 328 329 330 330 330 330 330 329 329 330 330 331 332 333 334 335 335 336 335 334 333 333 334 334 335 333 333 333 331 330 329 328 326 324 321 318 318 319 318 316 316 315 314 314 313 312 311 310 309 309 309 307 307 307 306 305 308 315 321 324 326 325 323 324 325 325 324 327 328 327 324 322 322 324 324 324 325 325 322
Wind_Speed
12 8 8 9 11 12 13 14 14 12 7 7 9 5 5 6 6 8 7 10 13 9 9 11 8 10 9 4 3 2 5 8 13 17 18 17 19 19 18 19 19 19 18 18 18 17 17 16 16 16 16 16 17 19 19 17 18 19 17 16 13 13 14 14 15 14 14 14 14 14 13 13 13 13 13 12 12 10 10 13 13 11 11 10 10 10
12 9 9 13 14 15 14 12 14 15 9 6 6 6 5 5 6 6 7 9 11 7 8 10 9 11 11 6 2 2 5 6 11 13 18 19 18 19 19 20 19 19 19 19 19 18 17 17 17 16 16 17 17 17 17 16 17 16 14 15 15 14 15 15 15 15 14 13 13 13 12 12 12 13 12 12 12 11 11 13 12 11 11 10 10 9
9 9 12 14 14 16 15 11 15 18 11 5 7 4 3 3 6 5 5 8 7 4 5 9 8 8 10 8 3 3 6 8 8 7 10 18 19 18 19 20 20 19 19 20 20 19 18 18 18 17 17 19 18 16 15 16 17 16 13 15 15 13 15 14 14 15 15 13 12 12 12 12 12 12 12 12 12 11 12 13 12 11 11 10 10 9
7 9 14 15 13 15 15 12 15 17 9 6 8 3 6 7 5 3 5 6 4 2 1 6 5 2 5 7 4 3 4 6 7 7 8 12 19 18 18 20 20 20 20 21 21 19 19 19 18 18 18 19 19 18 16 16 17 17 14 14 15 14 14 14 14 15 15 14 13 12 12 12 11 12 12 12 12 10 12 13 11 11 12 10 10 9
8 10 14 16 14 13 14 14 16 13 6 6 9 4 9 10 5 5 8 7 2 4 2 6 5 2 5 7 5 3 4 4 5 7 7 10 17 19 18 20 20 20 21 21 21 20 19 19 19 19 19 18 18 19 19 18 17 17 15 14 15 14 13 13 14 14 15 17 16 15 14 14 13 13 13 13 12 11 11 12 11 11 11 10 10 9
10 12 14 15 14 13 15 13 12 8 3 7 12 10 17 16 10 12 13 8 4 3 5 8 5 3 7 10 8 5 5 4 3 8 9 10 16 20 18 20 20 19 20 20 21 20 19 19 19 18 19 19 19 19 20 18 16 16 16 15 14 14 13 13 13 13 15 16 16 16 15 15 15 14 14 13 12 11 10 9 9 10 10 9 9 8
9 11 12 14 12 13 15 9 6 6 6 8 8 9 22 19 14 16 14 8 4 2 5 9 5 3 6 10 10 7 6 6 4 8 11 9 13 20 20 20 21 20 21 21 20 20 20 19 19 19 19 19 19 19 19 19 17 15 16 16 15 15 14 13 13 13 14 14 15 15 14 14 14 13 13 13 12 11 10 9 9 9 9 8 8 7
9 13 14 14 12 11 11 6 7 9 8 7 2 11 17 14 14 16 12 6 3 1 3 8 6 2 5 8 9 9 8 7 7 9 11 9 11 19 21 19 21 22 21 22 21 21 22 20 19 19 19 18 19 19 20 21 19 16 17 18 16 15 15 14 14 14 14 14 15 15 13 13 12 11 12 13 13 12 11 10 9 9 9 8 8 7
9 14 14 12 10 9 8 6 10 12 10 6 2 8 9 8 12 16 11 6 6 4 3 8 8 4 3 7 7 8 9 9 11 10 11 12 13 17 22 21 21 22 21 22 22 21 22 22 20 19 19 18 18 18 19 20 19 16 17 18 17 16 15 14 14 14 13 13 15 15 13 13 12 11 12 13 12 12 12 11 10 9 9 9 8 7
10 13 11 9 8 7 8 9 12 13 10 4 2 3 5 6 8 11 10 7 8 6 5 8 11 5 2 7 8 8 10 11 11 9 10 14 15 17 21 22 21 22 21 20 21 21 21 22 21 19 19 18 18 18 19 19 17 17 19 18 16 16 16 15 15 14 13 13 14 14 14 14 13 12 12 13 13 13 13 12 11 10 10 9 8 7
11 10 8 7 7 8 10 13 13 12 9 4 2 2 5 6 6 5 6 5 5 6 7 11 16 9 3 6 10 9 9 11 11 9 11 15 18 18 21 23 21 22 22 20 21 21 20 21 20 19 19 18 18 19 19 19 17 18 20 18 16 16 16 16 15 14 14 14 14 14 14 14 14 14 14 14 14 14 14 13 12 11 10 9 8 7
12 8 8 7 7 9 13 13 12 11 11 8 3 2 5 5 5 5 4 4 5 6 6 8 13 11 5 4 9 10 8 12 13 11 13 16 19 19 19 22 23 22 22 21 22 22 21 21 20 20 20 19 19 20 20 20 19 19 20 19 17 17 17 17 16 15 14 15 15 14 14 14 14 15 15 14 13 13 13 13 12 11 10 10 9 8
9 7 9 8 7 11 13 9 9 10 11 8 3 4 6 4 4 5 5 6 6 2 2 3 5 5 3 1 9 14 13 15 15 14 17 19 20 19 18 20 22 23 22 21 22 22 22 22 21 21 21 21 21 20 20 20 20 20 20 20 18 17 17 17 17 16 14 14 15 14 14 14 13 14 14 13 12 12 13 12 11 11 11 11 11 10
8 9 11 9 7 12 14 7 7 9 10 9 5 6 5 3 5 6 6 6 4 1 5 4 5 3 2 1 7 14 16 18 18 17 19 20 21 23 23 19 19 22 23 21 23 22 22 22 22 21 21 21 22 21 20 20 20 20 21 21 20 17 17 17 17 17 15 14 14 14 13 13 13 13 13 13 12 12 13 13 11 11 11 11 11 11
9 8 9 8 6 10 13 11 8 8 7 9 8 8 6 5 5 4 4 4 2 1 3 1 3 3 2 0 1 9 16 18 17 16 18 21 22 27 27 22 18 21 24 22 22 23 23 22 22 22 22 21 21 21 20 21 21 20 21 21 21 19 18 17 17 17 16 15 14 14 14 13 12 12 12 13 13 13 13 13 11 11 11 11 11 11
10 7 10 12 11 12 13 14 11 11 9 8 8 8 6 5 5 3 4 2 1 3 1 1 2 1 1 2 2 9 15 16 16 16 19 22 23 24 25 23 19 20 24 24 22 23 23 23 22 22 22 21 22 22 20 21 23 21 21 21 20 20 19 18 18 17 17 15 14 14 14 13 13 12 12 12 13 12 12 12 11 12 11 11 11 11
8 7 11 17 15 14 15 15 12 10 8 4 7 10 8 5 5 4 4 4 4 4 1 2 3 3 3 2 3 10 13 13 14 15 18 21 23 22 22 22 19 18 21 24 23 23 22 23 22 21 22 22 21 22 21 22 23 22 21 21 20 21 20 19 19 18 17 16 15 14 14 13 13 13 12 12 12 11 11 11 11 11 11 10 11 11
5 7 8 16 14 13 15 14 13 12 11 4 4 6 7 6 5 4 2 3 5 3 1 3 4 4 3 1 4 9 11 12 12 11 14 18 22 23 23 23 22 21 21 22 24 24 23 23 23 22 22 22 21 22 22 22 22 21 21 21 21 21 21 20 19 19 18 17 16 15 15 14 13 13 12 12 12 11 11 11 11 11 10 10 10 10
5 8 6 16 12 10 12 10 11 14 16 12 6 5 5 6 6 5 3 2 4 2 1 2 3 3 1 1 6 9 10 12 13 11 11 14 20 24 24 24 24 23 23 24 24 24 24 24 23 23 22 22 23 22 22 22 21 20 21 21 21 21 21 21 20 20 19 18 17 16 16 15 13 13 12 12 13 13 12 12 11 11 11 10 9 10
4 7 5 10 10 8 10 8 8 10 13 14 10 7 6 5 4 4 3 3 3 2 2 2 2 2 1 3 7 10 11 12 14 13 12 14 19 23 24 23 24 23 22 25 26 24 25 25 24 24 22 22 24 24 23 23 22 21 21 21 21 21 21 21 20 20 20 19 17 16 16 16 15 14 13 11 12 13 11 10 11 11 12 11 9 10
3 6 5 4 6 8 7 7 9 9 9 10 8 7 6 4 4 4 3 4 3 3 3 2 2 1 2 3 5 9 11 12 14 13 11 13 18 22 23 23 25 24 21 22 25 24 24 25 24 24 22 20 23 24 22 23 22 21 20 20 20 21 21 21 20 19 19 18 17 16 15 16 15 15 14 11 11 12 11 11 12 12 12 12 11 10
5 6 5 5 6 8 8 9 11 11 10 10 8 7 7 5 5 5 5 6 5 5 4 2 3 2 2 2 3 5 6 8 10 9 10 15 20 23 24 23 25 26 22 20 23 24 24 25 24 24 22 20 22 24 23 23 23 21 20 20 20 20 21 21 20 20 19 18 17 17 16 15 16 16 15 13 11 12 13 13 12 11 11 10 11 12
7 3 5 6 4 6 8 12 13 14 14 12 10 9 8 7 6 5 5 5 5 5 3 2 2 1 3 2 2 3 3 6 9 7 9 15 20 22 23 23 25 26 23 20 19 21 24 25 24 24 23 21 22 25 25 25 24 22 21 20 21 21 21 20 20 19 19 18 18 17 16 15 15 15 16 15 14 13 13 13 12 12 11 9 10 12
5 2 6 8 6 10 10 12 14 12 14 11 10 10 9 8 8 6 5 4 4 5 2 3 1 1 3 3 3 4 7 13 14 10 13 13 15 20 21 23 26 25 24 22 18 17 21 23 23 23 23 21 21 24 25 24 24 25 23 20 20 22 21 19 20 19 19 19 18 17 16 16 15 14 15 15 14 13 12 12 12 13 12 12 11 10
3 4 5 5 5 8 8 8 10 10 10 8 8 10 10 11 11 8 6 4 3 6 3 2 2 1 3 4 2 6 8 10 10 12 14 10 10 16 16 17 21 22 22 23 19 16 19 21 22 22 22 20 20 22 23 23 25 26 23 19 19 22 21 19 20 20 19 19 18 17 16 16 15 15 15 15 14 12 12 13 13 12 12 12 12 11
5 4 4 5 6 5 3 3 4 6 8 7 10 12 12 12 13 9 6 5 5 6 4 1 4 5 1 4 2 5 7 5 6 6 8 7 7 13 14 13 18 21 20 21 21 19 20 22 23 23 21 20 19 20 22 24 25 25 22 19 20 22 21 20 21 21 19 19 19 18 17 16 16 16 15 15 14 13 13 13 12 12 12 12 12 12
6 5 5 7 7 6 4 5 8 8 7 9 11 12 10 10 12 10 8 6 5 4 0 4 7 11 8 5 3 3 4 1 2 4 5 5 7 12 14 16 22 23 20 20 23 22 22 23 22 21 21 21 20 19 19 21 23 24 22 20 22 23 21 20 21 21 21 20 19 19 18 16 15 15 15 15 15 14 12 12 12 12 11 11 12 12
5 6 7 10 10 12 11 10 14 14 8 7 9 11 12 13 12 10 9 8 4 4 2 3 9 12 12 11 9 7 4 2 2 4 4 5 8 12 13 14 20 21 18 20 23 22 22 23 23 21 18 18 20 20 19 19 20 20 19 19 21 23 23 22 20 20 20 19 18 18 19 18 15 15 15 15 15 15 13 12 12 12 11 11 11 10
5 5 7 11 12 13 13 12 15 13 9 10 12 13 15 14 12 10 12 12 8 3 7 9 11 11 10 12 13 12 12 10 8 9 8 7 8 11 13 12 15 18 18 19 21 20 18 20 23 23 19 16 18 20 20 19 19 18 18 18 20 20 22 23 22 20 19 18 16 16 17 18 17 15 15 15 15 15 15 13 12 12 12 12 10 10
1 4 7 10 12 13 13 14 15 12 11 13 15 13 14 14 15 14 11 11 9 5 15 15 13 11 9 10 12 14 16 14 13 14 14 12 10 12 14 13 12 14 16 19 21 20 18 18 19 20 19 16 17 17 17 19 20 18 14 15 18 18 18 21 22 21 19 17 16 14 14 16 17 17 17 16 16 15 15 14 11 11 11 11 11 11
3 4 6 8 10 11 12 13 14 14 14 14 16 13 6 9 15 12 7 7 8 5 18 18 13 11 9 11 15 16 17 14 11 12 12 11 10 12 14 14 12 12 13 17 20 19 19 19 19 19 19 17 16 15 15 16 17 16 13 14 18 20 18 18 19 19 17 17 16 15 13 13 15 18 18 17 16 15 15 15 12 11 12 13 13 13
1 4 5 6 8 7 9 13 14 15 14 13 13 10 11 7 4 4 6 9 12 3 14 16 10 8 9 13 17 17 16 14 12 12 10 9 9 11 14 15 13 13 13 13 16 17 16 18 20 19 19 18 17 16 15 13 13 14 14 14 16 17 17 17 18 19 19 19 17 15 13 13 13 13 13 15 16 16 17 18 17 16 16 16 16 16
3 5 4 5 5 6 9 11 11 12 11 8 5 10 14 11 10 12 12 14 18 11 8 9 6 9 11 13 14 13 13 13 13 13 12 10 11 12 14 15 13 12 11 11 14 16 16 17 18 18 18 16 15 16 18 16 14 14 13 13 13 14 16 17 18 18 19 20 20 17 14 15 18 15 11 12 14 14 15 17 17 17 17 14 14 15
5 6 5 3 4 6 7 8 9 8 6 2 5 10 11 10 11 12 11 13 15 11 7 8 9 12 12 11 11 11 13 14 13 14 14 13 13 13 12 12 11 10 8 8 11 14 15 16 17 17 17 16 15 16 18 18 19 18 17 16 14 14 16 17 16 16 17 19 21 20 18 18 21 20 15 12 12 13 17 18 17 17 17 15 13 12
5 5 4 3 4 5 5 6 6 4 2 3 5 7 8 10 9 8 9 12 13 10 7 11 12 11 12 13 13 14 16 17 16 16 15 14 13 13 13 11 9 9 8 8 10 12 12 14 15 16 17 17 16 16 16 18 20 21 20 19 18 17 18 18 17 16 18 20 21 21 20 18 17 18 17 15 14 15 17 17 17 18 18 17 16 14
3 5 4 3 5 5 4 4 3 3 4 2 5 7 7 7 7 4 5 9 12 10 5 10 11 11 14 17 17 17 19 19 17 16 15 14 13 13 13 11 10 10 9 9 10 11 11 12 13 15 16 16 16 16 16 18 19 19 18 19 20 20 19 19 18 17 18 20 19 19 18 16 15 16 15 13 12 12 14 14 15 17 17 17 17 17
3 5 4 4 5 4 3 2 1 3 4 3 7 9 7 5 5 4 3 5 9 10 6 7 10 12 15 17 19 20 20 18 14 12 12 13 13 13 14 13 12 12 12 12 12 12 12 11 11 11 11 12 12 13 15 17 18 18 17 18 19 20 18 17 17 16 16 17 16 15 15 16 16 16 16 15 13 13 14 14 14 15 15 16 17 18
5 4 3 4 4 4 5 3 2 2 1 2 7 12 11 8 6 5 2 3 7 11 9 2 7 11 14 17 20 20 15 12 8 7 10 13 13 14 16 15 14 15 16 16 15 15 15 14 14 13 11 10 10 9 9 11 13 15 16 16 17 17 15 15 15 15 15 15 14 14 15 16 16 16 17 17 15 15 16 17 16 15 14 14 14 13
8 6 3 5 5 5 5 5 3 1 2 3 8 11 13 10 7 3 2 2 7 9 9 5 2 9 13 16 19 15 10 7 6 7 11 14 15 16 17 17 17 17 17 17 17 18 17 16 17 17 16 15 14 12 11 9 9 10 12 14 14 13 13 13 14 14 13 13 13 14 14 14 14 14 14 13 12 12 14 15 15 14 13 13 11 10
8 6 4 6 6 5 5 3 1 2 3 1 6 7 11 10 5 2 3 1 6 7 5 5 3 5 13 16 16 12 6 4 9 13 15 15 15 16 17 18 18 18 18 18 18 19 18 17 17 17 16 16 16 15 14 13 13 12 13 13 12 11 12 13 13 12 11 11 11 11 11 11 10 10 10 10 10 10 10 10 11 12 11 11 9 8
5 4 4 6 6 5 6 4 1 4 4 7 8 7 10 10 1 2 1 1 5 5 1 1 5 3 5 5 3 2 0 8 17 20 19 18 17 16 17 18 18 18 19 18 17 17 17 17 18 18 17 16 15 14 14 15 17 17 16 15 15 15 15 14 13 12 12 12 12 12 11 11 10 11 11 11 10 9 8 7 8 8 7 6 4 3
3 3 2 4 4 2 3 1 2 4 6 15 13 8 9 8 3 2 2 3 7 8 3 3 7 10 10 10 9 8 3 16 25 25 21 21 20 19 18 18 18 18 18 17 16 16 16 16 17 17 16 15 14 14 14 16 18 19 17 16 16 16 16 15 14 14 14 15 16 15 15 14 13 13 12 12 12 11 11 11 9 9 8 8 8 9
2 2 2 2 3 2 2 3 3 3 7 18 15 7 7 5 2 2 4 6 13 14 7 6 10 8 6 8 6 4 10 19 23 24 24 22 21 20 20 19 18 17 16 15 16 15 15 16 16 15 14 13 13 14 14 15 16 17 16 17 17 16 15 15 16 16 15 15 15 15 15 15 14 12 11 11 11 10 10 9 7 7 7 7 8 9
3 3 1 2 4 2 1 2 3 1 6 15 13 7 7 8 7 5 5 6 11 14 14 11 8 6 4 6 7 12 18 21 22 23 24 22 21 21 20 18 17 17 16 16 16 15 15 15 15 14 13 11 12 13 12 12 13 13 13 14 15 15 14 14 15 15 15 15 14 14 14 12 10 10 9 8 8 7 7 7 5 5 5 5 5 6
4 3 4 3 4 4 4 3 4 5 8 12 13 11 10 11 10 8 7 8 8 10 15 17 14 12 12 13 14 15 18 21 23 24 22 21 22 21 20 18 18 17 17 16 15 14 14 14 13 12 11 11 11 11 10 10 11 11 11 11 10 10 11 11 11 10 11 12 12 12 11 9 8 8 7 7 6 5 6 7 5 4 5 5 5 5
6 8 6 5 7 9 9 7 7 9 11 11 12 13 13 12 12 11 10 10 9 8 11 14 17 18 19 19 19 19 19 21 23 23 21 20 20 19 18 18 18 17 17 17 15 14 13 13 13 12 11 10 9 9 9 9 9 9 9 9 9 8 8 8 7 6 7 8 8 9 9 7 7 7 7 6 5 4 6 6 3 2 4 5 4 4
8 9 6 4 6 5 5 6 8 11 12 11 11 13 13 13 13 13 12 10 9 11 12 10 12 15 17 18 20 22 23 22 22 21 20 20 20 18 17 18 18 16 16 16 15 14 13 13 13 12 12 11 9 7 7 8 8 8 7 7 7 7 7 6 6 6 6 7 7 8 9 7 4 5 7 8 6 4 6 6 4 3 5 6 4 4
4 4 4 4 5 4 5 9 11 13 15 14 13 13 13 13 13 13 13 11 9 11 13 12 10 10 13 17 21 23 23 21 18 18 18 19 19 18 18 17 17 16 16 16 15 14 13 12 11 10 10 10 9 8 7 7 8 9 8 6 5 7 7 7 7 6 6 7 8 7 8 7 4 3 4 6 6 7 7 7 6 5 8 8 6 4
2 2 4 6 6 5 6 9 10 11 12 13 14 15 15 14 13 13 13 13 11 9 10 11 11 11 11 14 17 20 23 22 20 19 19 18 19 21 20 18 16 16 15 15 14 13 12 10 9 7 7 7 8 8 7 7 7 8 7 6 5 6 7 7 7 7 6 6 6 5 6 6 6 4 2 3 6 8 8 8 7 5 6 6 5 5
4 3 1 4 5 4 5 7 8 8 7 9 12 14 15 15 14 13 12 12 13 11 10 10 10 9 10 11 12 14 19 21 21 22 21 19 20 22 21 19 18 18 16 15 14 12 11 9 8 7 6 6 7 7 7 7 7 6 6 5 4 5 6 6 7 7 5 4 4 3 4 4 4 6 6 3 4 6 8 9 9 7 7 7 7 7
6 5 5 4 6 4 5 9 11 9 9 9 10 12 14 15 16 16 14 12 12 12 11 12 11 9 9 10 9 10 13 15 15 16 17 17 18 18 16 14 14 15 15 14 12 11 10 9 8 7 6 6 8 8 8 7 6 6 5 5 5 5 6 7 8 7 6 5 5 5 6 4 4 7 9 7 5 5 6 9 11 11 10 10 10 10
Wind_Direction
208 213 217 218 226 227 223 227 240 246 223 199 211 199 172 192 197 185 173 166 173 184 187 182 172 168 172 187 230 154 144 203 202 181 180 177 172 175 172 166 169 170 164 165 168 164 161 160 155 154 152 149 154 157 156 158 157 157 162 162 155 149 148 148 144 139 137 140 143 143 142 141 143 148 144 145 147 151 168 164 155 154 153 153 156 154
212 223 220 219 226 234 235 227 238 249 233 219 223 188 184 197 170 162 158 168 185 194 193 184 173 174 171 171 229 114 119 215 227 194 184 182 178 179 173 167 170 168 164 166 167 165 163 160 158 156 152 151 155 161 166 165 159 157 158 154 152 150 149 148 146 145 144 147 144 141 143 145 149 147 142 148 149 157 174 166 157 155 153 155 154 152
211 228 228 223 224 236 243 227 229 240 224 217 240 190 106 124 124 106 133 165 187 193 188 182 173 174 168 162 176 160 168 204 236 253 213 189 183 182 173 167 171 169 166 167 168 168 164 160 160 157 156 156 151 152 162 161 156 158 156 151 151 150 149 151 151 149 146 145 141 141 146 147 149 145 144 151 151 162 175 165 158 156 153 153 150 147
206 220 231 230 225 232 240 231 230 239 224 215 242 204 114 151 151 108 144 154 176 247 187 162 162 170 169 169 171 188 195 194 218 259 263 213 190 183 176 170 173 172 168 169 170 168 164 163 162 160 164 167 158 153 159 160 158 161 160 152 152 151 150 153 153 151 149 146 142 143 146 146 147 146 149 150 151 166 173 164 160 158 154 151 148 146
221 217 224 231 230 228 235 233 228 234 235 233 246 221 134 153 168 143 146 132 111 290 287 131 139 205 199 185 185 213 200 180 209 216 244 236 197 183 180 174 175 174 170 173 172 168 167 167 166 164 165 167 162 158 160 164 164 162 160 155 153 153 153 156 158 158 159 154 149 150 151 152 152 150 153 150 152 169 170 163 162 159 156 152 151 151
228 219 216 224 224 222 232 234 226 224 231 254 250 198 151 153 151 135 139 132 122 251 209 153 153 196 199 193 186 200 202 180 201 203 217 230 198 186 185 177 177 176 174 177 173 169 170 168 168 167 165 163 161 162 162 164 167 163 160 158 157 160 159 160 164 162 161 159 159 158 156 159 159 156 158 153 156 169 163 162 166 161 159 156 155 155
236 224 216 221 215 219 233 237 235 227 214 254 272 143 140 147 142 137 143 146 152 222 178 169 188 188 190 200 186 180 194 186 189 202 205 217 202 192 189 182 179 177 176 179 175 171 170 170 169 168 169 167 162 165 163 163 171 169 161 160 161 164 162 161 166 164 160 162 165 163 161 164 162 160 160 155 163 167 154 167 179 166 164 160 158 163
233 231 220 212 208 216 228 225 228 231 221 244 309 108 131 143 139 141 151 158 165 159 150 180 206 210 189 196 183 175 185 185 190 203 198 203 208 196 190 188 183 180 178 178 177 174 171 173 173 171 172 169 165 166 164 166 176 173 163 163 163 165 163 164 168 167 164 166 163 160 162 163 160 164 165 161 169 165 155 177 186 171 171 167 163 172
214 239 230 199 201 218 220 224 226 225 224 228 154 119 141 155 149 147 156 174 174 169 183 192 200 223 193 175 173 179 189 192 193 200 194 193 208 200 191 192 187 182 182 178 177 177 173 174 176 174 172 169 167 167 164 170 179 174 166 166 166 166 164 164 167 165 163 166 161 158 160 158 158 170 170 163 167 164 162 181 186 175 178 177 173 179
205 233 233 194 200 223 223 233 232 223 219 206 114 158 182 185 172 159 164 183 184 197 226 190 184 202 173 161 175 189 200 198 188 195 194 188 203 206 195 193 188 183 184 179 177 179 175 174 176 175 173 171 170 167 165 171 179 175 169 168 168 167 164 164 165 162 162 165 163 163 164 161 162 172 168 162 169 172 171 178 185 182 179 182 183 182
223 203 199 207 214 219 229 239 240 239 235 205 137 246 236 223 227 204 189 194 198 226 231 188 183 200 213 177 186 195 196 187 176 181 190 187 196 205 200 194 189 184 183 179 178 180 177 175 176 176 175 172 171 168 166 168 174 174 170 167 168 168 166 165 163 163 164 164 165 170 172 168 168 170 167 169 177 179 176 177 185 187 178 179 183 182
236 188 171 211 223 227 236 235 231 240 242 228 198 273 260 228 230 237 215 216 229 249 249 192 180 195 212 193 198 201 183 176 176 175 182 186 188 196 203 198 189 186 183 179 179 179 177 177 177 176 175 173 169 168 168 167 168 171 169 169 170 169 168 167 164 165 164 165 171 175 175 175 174 172 172 178 181 181 179 180 186 188 180 180 182 184
231 210 189 197 220 243 246 227 221 233 228 223 216 243 253 227 213 231 216 221 229 233 32 110 143 185 224 239 205 195 177 175 179 177 179 180 178 188 207 204 191 187 184 181 180 179 178 177 178 177 175 176 172 168 171 171 167 168 170 172 173 170 168 168 166 166 166 169 176 178 177 179 177 174 177 180 180 182 182 183 188 189 186 186 184 188
210 213 194 187 206 236 246 231 217 225 200 195 218 234 244 229 221 233 220 231 243 64 55 95 131 178 211 229 203 185 174 172 169 172 179 177 175 186 201 204 193 187 186 183 181 180 179 177 177 177 174 174 173 170 173 172 168 169 172 174 175 172 169 170 169 169 170 172 177 180 180 181 179 176 179 179 179 184 183 184 191 191 191 193 189 191
208 207 189 195 201 209 233 243 245 259 217 191 215 237 239 228 234 252 229 228 246 39 11 50 187 227 198 146 223 164 166 165 158 169 186 188 187 190 195 200 197 188 185 185 183 181 181 178 178 178 174 174 175 174 174 174 171 172 177 180 179 175 172 171 172 172 175 176 178 182 181 181 181 179 180 178 179 186 186 185 189 189 191 195 192 194
220 214 188 197 207 196 215 238 251 273 253 189 192 229 237 218 212 250 272 283 199 177 264 235 204 255 120 59 72 144 156 161 158 168 187 196 200 197 195 200 203 192 184 185 185 182 180 179 180 178 176 179 179 176 176 175 174 176 182 184 182 179 175 173 176 176 178 179 180 184 183 179 181 181 179 180 181 186 186 186 191 191 189 190 191 196
228 229 188 181 198 196 202 228 240 257 263 174 179 219 227 215 209 232 281 298 241 207 207 226 179 136 133 92 116 146 154 164 169 169 176 187 194 197 200 202 203 195 187 186 185 183 181 180 183 181 178 181 181 178 179 177 175 180 185 185 184 184 180 178 179 178 180 182 182 186 184 181 183 181 180 183 185 185 184 189 195 190 188 191 194 200
259 271 193 170 187 188 189 221 234 241 260 251 191 218 218 215 222 231 261 284 256 242 1 277 225 169 165 113 140 164 166 170 178 171 165 176 184 190 200 202 198 195 192 190 186 185 185 184 186 186 182 184 183 180 180 177 175 180 183 184 185 186 185 183 182 181 182 185 186 187 185 186 186 182 184 187 185 182 185 195 195 186 192 200 197 199
281 290 205 168 171 168 175 211 230 234 249 258 284 301 254 226 214 207 211 250 258 228 154 235 221 173 163 150 166 183 182 176 179 171 167 182 184 186 196 198 195 194 193 191 189 187 188 189 190 189 185 184 184 183 182 180 177 177 179 182 184 186 186 185 183 184 186 186 188 188 187 188 184 182 190 189 182 184 190 195 192 186 193 203 200 196
283 288 247 167 166 175 178 199 220 220 233 246 265 281 270 259 229 205 222 250 252 226 178 166 169 167 157 165 178 190 193 185 182 179 182 194 190 185 189 193 194 193 188 187 189 188 189 191 190 190 188 185 185 186 186 185 183 179 179 181 182 183 184 183 184 189 190 187 187 190 193 190 184 185 193 191 184 188 191 190 190 190 193 198 204 203
265 264 262 168 185 222 207 195 217 216 210 223 236 241 240 233 204 202 240 252 247 257 241 154 143 197 124 134 178 189 193 192 189 183 176 191 196 188 187 190 192 190 185 185 188 189 192 193 189 189 190 186 184 186 188 188 187 184 182 180 182 184 183 181 184 190 192 187 183 190 198 195 189 188 191 194 192 187 189 194 195 198 196 194 200 206
246 245 241 190 188 231 220 191 212 227 218 212 216 228 237 228 211 210 230 241 239 259 272 117 140 197 125 131 173 171 191 196 188 176 160 177 194 193 189 190 186 186 188 189 189 191 194 193 188 190 194 189 185 187 190 190 190 189 187 184 184 187 187 184 184 190 192 186 184 190 194 195 196 193 189 196 200 193 195 199 196 202 203 197 199 203
248 272 271 252 235 264 235 189 200 227 232 224 218 223 229 231 234 229 230 243 246 259 279 103 137 144 99 124 146 121 90 85 90 106 148 171 187 191 192 190 183 184 189 189 189 195 196 192 189 191 196 197 193 191 190 189 188 189 191 189 189 189 189 186 186 192 194 187 187 192 190 192 201 199 191 195 203 201 200 198 196 202 203 201 205 203
255 257 273 279 292 294 260 194 184 214 235 236 224 220 227 233 235 230 234 254 269 271 272 109 129 17 45 36 58 78 72 81 95 137 172 177 186 188 187 187 185 187 192 192 195 199 194 190 190 189 190 196 198 194 191 190 190 190 189 191 192 190 188 186 187 196 200 191 187 192 192 193 199 202 198 199 204 203 199 200 205 207 201 201 211 209
295 219 235 268 273 276 254 195 175 193 223 244 239 223 223 231 236 231 217 216 256 275 281 97 137 166 6 350 40 86 84 102 129 168 183 185 188 184 182 184 182 184 192 196 199 199 192 187 187 188 189 192 195 195 195 197 198 194 189 191 196 191 188 189 189 195 203 198 189 190 195 196 196 201 203 203 206 208 204 204 210 212 205 204 211 209
298 253 220 230 243 252 235 204 210 204 200 222 246 238 222 218 231 242 229 201 211 241 262 62 137 141 90 294 272 85 88 125 142 158 187 195 180 177 183 187 179 175 181 190 193 195 195 189 185 189 196 196 195 198 200 201 201 196 191 194 199 193 188 191 193 193 200 201 193 190 195 200 201 201 204 206 207 209 212 209 210 217 214 207 212 214
296 298 265 250 258 274 296 326 311 283 212 198 228 246 246 231 223 232 247 238 204 193 347 51 117 136 146 187 209 90 82 142 156 139 174 189 170 171 179 184 182 176 173 180 184 184 187 188 184 185 194 198 197 196 195 200 202 197 195 198 197 192 190 193 197 198 201 203 198 194 194 198 204 205 205 209 208 208 213 214 212 218 217 210 214 220
275 280 274 273 273 276 290 308 297 283 254 224 230 231 247 256 238 223 240 254 225 164 133 99 125 137 148 155 156 151 149 207 205 146 152 184 176 171 172 175 181 182 179 181 181 173 169 173 174 173 177 185 191 189 185 193 204 205 202 199 193 191 190 190 194 199 203 205 203 202 199 196 201 209 209 211 213 211 210 213 215 219 224 227 223 220
273 276 269 271 269 267 272 270 270 276 273 267 261 230 224 247 256 240 236 245 251 176 146 152 140 132 144 149 146 155 165 172 166 149 159 184 171 164 169 170 176 182 185 187 185 179 171 166 165 166 164 165 175 182 182 186 197 207 206 194 187 190 191 190 193 195 197 201 202 208 211 204 200 207 211 212 219 218 212 212 217 220 226 234 233 224
262 289 280 285 281 272 262 248 247 259 258 263 271 247 216 221 239 244 240 244 250 149 130 135 127 113 127 143 137 141 147 147 143 146 162 175 162 156 162 161 165 175 183 186 183 185 193 189 179 177 175 168 166 175 182 184 189 198 199 188 190 197 195 193 196 195 196 203 205 207 213 210 206 210 211 210 214 217 213 212 218 225 227 228 231 233
116 281 291 294 283 274 268 252 237 238 246 258 273 275 252 225 231 240 256 271 273 167 130 124 114 110 122 130 123 122 129 133 134 138 148 158 156 151 148 147 154 163 176 184 180 179 192 202 202 198 196 195 190 186 186 183 186 192 192 193 202 208 207 202 201 203 205 210 212 212 213 215 214 212 210 207 208 210 206 204 210 219 221 219 219 226
168 277 285 272 266 269 274 264 247 241 242 245 263 312 358 348 304 339 8 1 349 31 128 124 118 125 131 127 123 124 131 136 134 129 130 137 138 134 130 130 134 138 147 165 172 173 181 192 199 203 206 214 221 218 206 192 187 189 189 196 204 211 217 214 209 212 215 214 216 216 217 227 230 220 212 212 215 215 209 206 210 214 215 217 217 217
269 273 277 275 279 274 273 280 276 261 245 233 277 350 5 3 8 15 21 20 9 17 110 124 115 124 131 130 130 134 136 135 135 132 128 117 104 106 114 114 112 116 124 139 156 167 173 176 183 191 195 201 211 217 212 205 201 197 195 202 206 206 212 212 208 209 212 215 216 209 205 223 231 226 218 212 212 220 222 219 221 223 224 228 228 223
256 266 267 270 280 274 280 292 283 262 246 263 344 358 10 20 25 23 26 23 10 17 76 108 109 118 126 126 128 134 131 128 127 122 118 112 105 104 109 108 108 112 119 138 159 171 176 177 180 184 186 188 193 200 203 204 208 209 206 207 207 204 206 209 211 208 206 211 215 210 208 220 227 229 234 230 222 229 234 233 232 233 236 240 239 236
253 269 269 260 267 273 287 280 255 240 273 311 345 14 37 41 36 42 47 33 14 18 78 116 117 120 127 125 127 130 124 120 118 112 112 116 116 114 111 109 117 123 125 144 168 180 185 186 189 190 193 196 199 202 203 203 205 207 207 205 205 205 207 212 213 207 203 208 211 210 209 215 224 231 237 239 236 239 242 240 239 240 243 244 243 244
281 276 267 251 257 256 269 272 248 255 285 319 22 24 37 41 27 45 71 39 14 9 65 117 121 127 129 126 128 125 118 115 113 109 114 119 117 118 120 120 126 129 126 130 147 166 178 185 192 196 199 203 208 213 214 211 206 206 207 207 207 204 203 206 206 200 202 208 209 207 206 211 224 231 233 237 238 238 242 242 240 240 241 245 245 244
280 280 271 245 254 258 258 260 178 258 288 5 15 359 10 40 29 27 72 48 20 13 38 114 135 134 129 128 127 120 114 112 106 104 118 126 123 121 122 122 123 122 119 119 124 136 150 162 173 183 192 198 205 214 218 218 217 214 212 209 209 205 200 201 203 200 201 207 211 212 210 214 224 228 231 236 235 231 236 239 240 241 241 245 245 241
245 251 266 255 249 255 252 231 181 208 329 338 315 330 353 21 46 41 25 58 35 14 9 64 142 133 127 131 131 128 126 119 108 116 132 133 129 126 123 121 120 116 113 112 111 114 121 127 132 137 144 151 157 169 188 203 211 211 209 207 209 207 202 202 207 207 207 209 214 220 219 217 221 225 229 233 233 232 236 239 242 246 245 245 248 245
233 207 225 257 240 238 250 245 241 213 137 237 282 318 339 354 40 55 283 14 31 5 356 359 121 141 140 141 140 146 153 136 125 142 144 139 137 135 131 127 124 118 113 110 108 108 109 111 113 114 116 118 119 119 125 143 166 178 182 187 195 196 190 187 189 193 197 198 200 206 208 206 209 216 222 224 219 219 227 234 238 241 241 241 245 249
231 200 205 242 235 234 244 241 291 67 90 314 298 314 321 331 35 104 238 339 10 358 15 6 312 177 159 158 159 165 175 151 144 147 147 144 135 127 126 127 126 122 118 115 112 109 107 106 105 105 105 105 106 107 112 119 126 132 139 146 152 156 154 150 152 161 169 172 175 181 185 182 178 183 193 194 187 187 198 214 221 223 227 229 232 240
249 230 227 241 232 228 238 232 150 94 58 354 335 330 319 314 331 129 226 316 356 357 54 270 320 10 88 114 144 250 228 134 138 140 142 141 132 121 119 122 121 119 118 117 115 111 109 108 106 104 101 101 105 108 112 116 118 118 122 128 130 128 126 125 128 132 136 137 138 141 146 150 153 159 163 163 167 173 171 168 182 195 202 202 188 187
294 292 272 266 258 240 251 280 100 107 21 355 346 346 341 318 228 140 25 54 64 56 49 14 29 37 40 36 15 347 55 126 133 135 133 131 129 126 122 118 116 115 113 112 111 110 110 108 106 103 100 102 109 114 116 120 122 123 126 130 127 122 121 123 125 128 133 134 132 128 126 126 133 142 145 141 142 149 147 138 138 147 152 148 136 128
348 327 12 351 337 25 54 36 75 127 8 0 356 356 6 10 136 98 29 69 94 98 96 60 60 65 49 42 48 80 115 126 131 129 125 125 126 124 121 118 116 114 111 109 109 109 108 105 102 100 100 105 116 122 123 124 124 127 132 132 128 125 124 123 123 127 133 135 132 129 125 123 123 125 126 129 130 130 131 129 121 117 118 121 125 126
29 339 48 42 0 5 61 45 53 87 19 17 19 21 31 48 70 73 62 78 97 117 132 129 120 126 102 81 109 128 126 128 130 125 124 128 129 125 123 122 119 116 114 111 109 107 105 105 104 104 107 112 120 124 129 133 131 132 136 135 133 133 133 132 131 130 131 131 129 125 123 125 127 120 113 116 121 116 114 113 99 83 87 95 106 114
50 71 101 85 55 62 75 65 51 51 44 38 36 36 40 46 46 52 78 85 80 107 128 133 139 151 150 142 140 136 129 128 130 131 132 132 129 126 126 124 122 119 116 113 112 113 114 117 119 119 120 122 123 122 126 131 132 133 135 136 139 141 143 144 144 140 134 131 128 125 124 125 125 118 103 93 95 96 92 89 86 85 82 77 86 106
126 125 112 103 105 90 71 59 56 55 57 53 46 44 45 44 41 47 67 79 81 97 115 123 129 135 143 147 145 144 142 138 134 133 133 129 125 125 125 121 119 118 116 115 118 123 127 129 126 124 122 121 123 127 128 128 131 133 135 136 139 146 151 151 148 144 138 133 127 120 116 113 118 128 127 113 104 97 91 87 82 81 77 66 66 86
156 149 133 129 137 123 80 72 69 60 59 59 59 59 56 50 51 56 61 69 93 111 109 109 121 130 138 144 144 144 147 144 137 133 134 132 128 127 126 122 119 120 123 124 124 125 128 126 123 123 124 123 124 130 132 132 131 125 120 124 137 149 153 150 150 152 146 141 135 123 119 128 153 156 136 125 125 132 130 136 157 155 144 152 142 100
157 151 122 106 109 109 108 104 92 76 65 56 57 66 67 60 59 63 64 68 92 118 121 116 111 113 124 135 140 143 143 140 133 127 127 131 131 130 128 126 126 130 133 132 130 129 129 128 126 128 129 129 132 136 135 132 130 122 118 127 151 159 156 152 150 151 147 144 145 145 148 156 161 136 122 137 163 177 172 175 183 166 159 175 186 163
48 90 119 125 116 111 127 132 124 105 82 61 56 65 70 70 67 64 66 72 82 105 125 118 101 97 112 123 128 133 137 141 144 142 139 142 144 142 140 141 144 146 143 140 139 138 133 128 125 124 126 129 132 136 137 137 136 135 137 150 165 162 160 160 151 143 141 144 151 166 167 144 117 104 127 191 202 194 188 195 205 197 187 198 211 206
36 14 37 141 141 132 121 115 114 111 91 64 56 60 66 73 76 71 66 68 78 97 124 126 107 108 125 125 119 125 132 138 147 152 154 157 156 154 155 159 157 155 155 154 153 148 138 130 125 127 134 138 136 137 139 140 142 145 148 155 159 158 163 160 144 130 118 109 110 119 123 122 138 156 158 182 241 226 211 213 220 223 219 217 218 221
62 34 25 81 108 94 86 100 107 110 102 86 71 64 63 66 71 74 70 66 71 89 113 124 120 120 131 133 131 137 141 143 147 153 158 163 165 166 169 168 161 161 166 166 164 162 154 143 136 136 139 142 143 142 139 138 139 140 141 145 151 155 153 138 123 115 116 127 142 141 128 135 194 184 169 177 214 227 220 222 230 239 244 243 241 242